Year,Month,Day,Hour,Minute,Value (Times are PST for temperature in C)
2019,06,03,00,00,10.70
2019,06,03,00,01,10.70
2019,06,03,00,02,10.70
2019,06,03,00,03,10.70
2019,06,03,00,04,10.70
2019,06,03,00,05,10.70
2019,06,03,00,06,10.70
2019,06,03,00,07,10.70
2019,06,03,00,08,10.70
2019,06,03,00,09,10.70
2019,06,03,00,10,10.70
2019,06,03,00,11,10.70
2019,06,03,00,12,10.70
2019,06,03,00,13,10.70
2019,06,03,00,14,10.70
2019,06,03,00,15,10.70
2019,06,03,00,16,10.70
2019,06,03,00,17,10.70
2019,06,03,00,18,10.60
2019,06,03,00,19,10.60
2019,06,03,00,20,10.60
2019,06,03,00,21,10.60
2019,06,03,00,22,10.60
2019,06,03,00,23,10.60
2019,06,03,00,24,10.60
2019,06,03,00,25,10.60
2019,06,03,00,26,10.60
2019,06,03,00,27,10.60
2019,06,03,00,28,10.60
2019,06,03,00,29,10.60
2019,06,03,00,30,10.50
2019,06,03,00,31,10.50
2019,06,03,00,32,10.50
2019,06,03,00,33,10.50
2019,06,03,00,34,10.50
2019,06,03,00,35,10.50
2019,06,03,00,36,10.50
2019,06,03,00,37,10.50
2019,06,03,00,38,10.50
2019,06,03,00,39,10.50
2019,06,03,00,40,10.50
2019,06,03,00,41,10.50
2019,06,03,00,42,10.50
2019,06,03,00,43,10.50
2019,06,03,00,44,10.50
2019,06,03,00,45,10.50
2019,06,03,00,46,10.50
2019,06,03,00,47,10.40
2019,06,03,00,48,10.40
2019,06,03,00,49,10.40
2019,06,03,00,50,10.40
2019,06,03,00,51,10.40
2019,06,03,00,52,10.40
2019,06,03,00,53,10.40
2019,06,03,00,54,10.40
2019,06,03,00,55,10.40
2019,06,03,00,56,10.40
2019,06,03,00,57,10.40
2019,06,03,00,58,10.40
2019,06,03,00,59,10.40
2019,06,03,01,00,10.40
2019,06,03,01,01,10.30
2019,06,03,01,02,10.30
2019,06,03,01,03,10.30
2019,06,03,01,04,10.30
2019,06,03,01,05,10.30
2019,06,03,01,06,10.30
2019,06,03,01,07,10.30
2019,06,03,01,08,10.30
2019,06,03,01,09,10.30
2019,06,03,01,10,10.20
2019,06,03,01,11,10.20
2019,06,03,01,12,10.20
2019,06,03,01,13,10.20
2019,06,03,01,14,10.20
2019,06,03,01,15,10.20
2019,06,03,01,16,10.20
2019,06,03,01,17,10.20
2019,06,03,01,18,10.20
2019,06,03,01,19,10.20
2019,06,03,01,20,10.20
2019,06,03,01,21,10.20
2019,06,03,01,22,10.20
2019,06,03,01,23,10.20
2019,06,03,01,24,10.20
2019,06,03,01,25,10.20
2019,06,03,01,26,10.20
2019,06,03,01,27,10.20
2019,06,03,01,28,10.20
2019,06,03,01,29,10.20
2019,06,03,01,30,10.10
2019,06,03,01,31,10.10
2019,06,03,01,32,10.10
2019,06,03,01,33,10.10
2019,06,03,01,34,10.10
2019,06,03,01,35,10.10
2019,06,03,01,36,10.00
2019,06,03,01,37,10.00
2019,06,03,01,38,10.00
2019,06,03,01,39,10.00
2019,06,03,01,40,10.00
2019,06,03,01,41,10.00
2019,06,03,01,42,9.90
2019,06,03,01,43,9.90
2019,06,03,01,44,9.90
2019,06,03,01,45,9.90
2019,06,03,01,46,9.90
2019,06,03,01,47,9.90
2019,06,03,01,48,9.90
2019,06,03,01,49,9.90
2019,06,03,01,50,9.90
2019,06,03,01,51,9.90
2019,06,03,01,52,9.90
2019,06,03,01,53,9.90
2019,06,03,01,54,9.90
2019,06,03,01,55,9.80
2019,06,03,01,56,9.80
2019,06,03,01,57,9.80
2019,06,03,01,58,9.80
2019,06,03,01,59,9.80
2019,06,03,02,00,9.80
2019,06,03,02,01,9.80
2019,06,03,02,02,9.80
2019,06,03,02,03,9.80
2019,06,03,02,04,9.80
2019,06,03,02,05,9.80
2019,06,03,02,06,9.80
2019,06,03,02,07,9.80
2019,06,03,02,08,9.80
2019,06,03,02,09,9.80
2019,06,03,02,10,9.80
2019,06,03,02,11,9.80
2019,06,03,02,12,9.80
2019,06,03,02,13,9.70
2019,06,03,02,14,9.70
2019,06,03,02,15,9.70
2019,06,03,02,16,9.70
2019,06,03,02,17,9.70
2019,06,03,02,18,9.70
2019,06,03,02,19,9.60
2019,06,03,02,20,9.70
2019,06,03,02,21,9.60
2019,06,03,02,22,9.60
2019,06,03,02,23,9.60
2019,06,03,02,24,9.60
2019,06,03,02,25,9.60
2019,06,03,02,26,9.60
2019,06,03,02,27,9.60
2019,06,03,02,28,9.60
2019,06,03,02,29,9.60
2019,06,03,02,30,9.60
2019,06,03,02,31,9.60
2019,06,03,02,32,9.60
2019,06,03,02,33,9.60
2019,06,03,02,34,9.60
2019,06,03,02,35,9.60
2019,06,03,02,36,9.70
2019,06,03,02,37,9.70
2019,06,03,02,38,9.70
2019,06,03,02,39,9.70
2019,06,03,02,40,9.70
2019,06,03,02,41,9.80
2019,06,03,02,42,9.80
2019,06,03,02,43,9.80
2019,06,03,02,44,9.80
2019,06,03,02,45,9.80
2019,06,03,02,46,9.80
2019,06,03,02,47,9.80
2019,06,03,02,48,9.80
2019,06,03,02,49,9.80
2019,06,03,02,50,9.80
2019,06,03,02,51,9.80
2019,06,03,02,52,9.80
2019,06,03,02,53,9.80
2019,06,03,02,54,9.80
2019,06,03,02,55,9.90
2019,06,03,02,56,9.90
2019,06,03,02,57,9.90
2019,06,03,02,58,10.00
2019,06,03,02,59,10.00
2019,06,03,03,00,10.00
2019,06,03,03,01,10.10
2019,06,03,03,02,10.10
2019,06,03,03,03,10.10
2019,06,03,03,04,10.10
2019,06,03,03,05,10.10
2019,06,03,03,06,10.10
2019,06,03,03,07,10.10
2019,06,03,03,08,10.20
2019,06,03,03,09,10.20
2019,06,03,03,10,10.20
2019,06,03,03,11,10.20
2019,06,03,03,12,10.20
2019,06,03,03,13,10.20
2019,06,03,03,14,10.20
2019,06,03,03,15,10.20
2019,06,03,03,16,10.20
2019,06,03,03,17,10.20
2019,06,03,03,18,10.20
2019,06,03,03,19,10.20
2019,06,03,03,20,10.10
2019,06,03,03,21,10.10
2019,06,03,03,22,10.10
2019,06,03,03,23,10.10
2019,06,03,03,24,10.10
2019,06,03,03,25,10.00
2019,06,03,03,26,10.00
2019,06,03,03,27,10.00
2019,06,03,03,28,10.00
2019,06,03,03,29,10.00
2019,06,03,03,30,10.00
2019,06,03,03,31,10.00
2019,06,03,03,32,9.90
2019,06,03,03,33,9.90
2019,06,03,03,34,9.90
2019,06,03,03,35,9.90
2019,06,03,03,36,9.90
2019,06,03,03,37,9.90
2019,06,03,03,38,9.90
2019,06,03,03,39,9.90
2019,06,03,03,40,9.90
2019,06,03,03,41,9.90
2019,06,03,03,42,9.90
2019,06,03,03,43,9.90
2019,06,03,03,44,9.90
2019,06,03,03,45,9.90
2019,06,03,03,46,9.90
2019,06,03,03,47,9.90
2019,06,03,03,48,9.90
2019,06,03,03,49,9.90
2019,06,03,03,50,9.90
2019,06,03,03,51,9.90
2019,06,03,03,52,9.90
2019,06,03,03,53,9.90
2019,06,03,03,54,9.90
2019,06,03,03,55,9.90
2019,06,03,03,56,9.90
2019,06,03,03,57,9.90
2019,06,03,03,58,9.90
2019,06,03,03,59,9.90
2019,06,03,04,00,9.90
2019,06,03,04,01,9.80
2019,06,03,04,02,9.80
2019,06,03,04,03,9.80
2019,06,03,04,04,9.80
2019,06,03,04,05,9.80
2019,06,03,04,06,9.80
2019,06,03,04,07,9.80
2019,06,03,04,08,9.80
2019,06,03,04,09,9.80
2019,06,03,04,10,9.80
2019,06,03,04,11,9.80
2019,06,03,04,12,9.80
2019,06,03,04,13,9.80
2019,06,03,04,14,9.80
2019,06,03,04,15,9.80
2019,06,03,04,16,9.80
2019,06,03,04,17,9.80
2019,06,03,04,18,9.70
2019,06,03,04,19,9.70
2019,06,03,04,20,9.70
2019,06,03,04,21,9.70
2019,06,03,04,22,9.70
2019,06,03,04,23,9.70
2019,06,03,04,24,9.60
2019,06,03,04,25,9.60
2019,06,03,04,26,9.60
2019,06,03,04,27,9.60
2019,06,03,04,28,9.50
2019,06,03,04,29,9.50
2019,06,03,04,30,9.50
2019,06,03,04,31,9.50
2019,06,03,04,32,9.40
2019,06,03,04,33,9.40
2019,06,03,04,34,9.40
2019,06,03,04,35,9.40
2019,06,03,04,36,9.40
2019,06,03,04,37,9.50
2019,06,03,04,38,9.50
2019,06,03,04,39,9.50
2019,06,03,04,40,9.50
2019,06,03,04,41,9.60
2019,06,03,04,42,9.60
2019,06,03,04,43,9.70
2019,06,03,04,44,9.70
2019,06,03,04,45,9.70
2019,06,03,04,46,9.80
2019,06,03,04,47,9.80
2019,06,03,04,48,9.80
2019,06,03,04,49,9.80
2019,06,03,04,50,9.90
2019,06,03,04,51,10.00
2019,06,03,04,52,10.00
2019,06,03,04,53,10.10
2019,06,03,04,54,10.10
2019,06,03,04,55,10.20
2019,06,03,04,56,10.20
2019,06,03,04,57,10.20
2019,06,03,04,58,10.20
2019,06,03,04,59,10.20
2019,06,03,05,00,10.20
2019,06,03,05,01,10.10
2019,06,03,05,02,10.10
2019,06,03,05,03,10.10
2019,06,03,05,04,10.00
2019,06,03,05,05,10.00
2019,06,03,05,06,9.90
2019,06,03,05,07,9.90
2019,06,03,05,08,9.90
2019,06,03,05,09,9.90
2019,06,03,05,10,9.80
2019,06,03,05,11,9.80
2019,06,03,05,12,9.80
2019,06,03,05,13,9.70
2019,06,03,05,14,9.70
2019,06,03,05,15,9.70
2019,06,03,05,16,9.60
2019,06,03,05,17,9.60
2019,06,03,05,18,9.60
2019,06,03,05,19,9.50
2019,06,03,05,20,9.50
2019,06,03,05,21,9.40
2019,06,03,05,22,9.40
2019,06,03,05,23,9.40
2019,06,03,05,24,9.30
2019,06,03,05,25,9.30
2019,06,03,05,26,9.30
2019,06,03,05,27,9.30
2019,06,03,05,28,9.20
2019,06,03,05,29,9.20
2019,06,03,05,30,9.20
2019,06,03,05,31,9.20
2019,06,03,05,32,9.20
2019,06,03,05,33,9.20
2019,06,03,05,34,9.20
2019,06,03,05,35,9.20
2019,06,03,05,36,9.10
2019,06,03,05,37,9.10
2019,06,03,05,38,9.10
2019,06,03,05,39,9.10
2019,06,03,05,40,9.10
2019,06,03,05,41,9.10
2019,06,03,05,42,9.10
2019,06,03,05,43,9.10
2019,06,03,05,44,9.10
2019,06,03,05,45,9.10
2019,06,03,05,46,9.10
2019,06,03,05,47,9.00
2019,06,03,05,48,9.00
2019,06,03,05,49,9.00
2019,06,03,05,50,9.00
2019,06,03,05,51,9.00
2019,06,03,05,52,9.00
2019,06,03,05,53,9.00
2019,06,03,05,54,9.00
2019,06,03,05,55,9.00
2019,06,03,05,56,9.00
2019,06,03,05,57,9.00
2019,06,03,05,58,9.00
2019,06,03,05,59,9.00
2019,06,03,06,00,8.90
2019,06,03,06,01,8.90
2019,06,03,06,02,8.90
2019,06,03,06,03,8.90
2019,06,03,06,04,8.90
2019,06,03,06,05,8.90
2019,06,03,06,06,8.80
2019,06,03,06,07,8.80
2019,06,03,06,08,8.80
2019,06,03,06,09,8.80
2019,06,03,06,10,8.80
2019,06,03,06,11,8.80
2019,06,03,06,12,8.80
2019,06,03,06,13,8.80
2019,06,03,06,14,8.80
2019,06,03,06,15,8.80
2019,06,03,06,16,8.80
2019,06,03,06,17,8.80
2019,06,03,06,18,8.80
2019,06,03,06,19,8.80
2019,06,03,06,20,8.80
2019,06,03,06,21,8.90
2019,06,03,06,22,8.90
2019,06,03,06,23,8.90
2019,06,03,06,24,8.90
2019,06,03,06,25,8.90
2019,06,03,06,26,8.90
2019,06,03,06,27,9.00
2019,06,03,06,28,9.00
2019,06,03,06,29,9.00
2019,06,03,06,30,9.10
2019,06,03,06,31,9.10
2019,06,03,06,32,9.10
2019,06,03,06,33,9.10
2019,06,03,06,34,9.20
2019,06,03,06,35,9.20
2019,06,03,06,36,9.20
2019,06,03,06,37,9.20
2019,06,03,06,38,9.30
2019,06,03,06,39,9.30
2019,06,03,06,40,9.30
2019,06,03,06,41,9.30
2019,06,03,06,42,9.30
2019,06,03,06,43,9.40
2019,06,03,06,44,9.40
2019,06,03,06,45,9.40
2019,06,03,06,46,9.50
2019,06,03,06,47,9.50
2019,06,03,06,48,9.60
2019,06,03,06,49,9.60
2019,06,03,06,50,9.60
2019,06,03,06,51,9.60
2019,06,03,06,52,9.60
2019,06,03,06,53,9.70
2019,06,03,06,54,9.70
2019,06,03,06,55,9.70
2019,06,03,06,56,9.70
2019,06,03,06,57,9.70
2019,06,03,06,58,9.70
2019,06,03,06,59,9.70
2019,06,03,07,00,9.80
2019,06,03,07,01,9.80
2019,06,03,07,02,9.80
2019,06,03,07,03,9.80
2019,06,03,07,04,9.80
2019,06,03,07,05,9.90
2019,06,03,07,06,9.90
2019,06,03,07,07,9.90
2019,06,03,07,08,10.00
2019,06,03,07,09,10.00
2019,06,03,07,10,10.00
2019,06,03,07,11,10.10
2019,06,03,07,12,10.10
2019,06,03,07,13,10.10
2019,06,03,07,14,10.10
2019,06,03,07,15,10.10
2019,06,03,07,16,10.20
2019,06,03,07,17,10.20
2019,06,03,07,18,10.20
2019,06,03,07,19,10.20
2019,06,03,07,20,10.20
2019,06,03,07,21,10.30
2019,06,03,07,22,10.30
2019,06,03,07,23,10.40
2019,06,03,07,24,10.40
2019,06,03,07,25,10.40
2019,06,03,07,26,10.50
2019,06,03,07,27,10.50
2019,06,03,07,28,10.60
2019,06,03,07,29,10.60
2019,06,03,07,30,10.70
2019,06,03,07,31,10.70
2019,06,03,07,32,10.70
2019,06,03,07,33,10.80
2019,06,03,07,34,10.80
2019,06,03,07,35,10.90
2019,06,03,07,36,10.90
2019,06,03,07,37,11.00
2019,06,03,07,38,11.10
2019,06,03,07,39,11.10
2019,06,03,07,40,11.10
2019,06,03,07,41,11.20
2019,06,03,07,42,11.20
2019,06,03,07,43,11.30
2019,06,03,07,44,11.30
2019,06,03,07,45,11.30
2019,06,03,07,46,11.40
2019,06,03,07,47,11.40
2019,06,03,07,48,11.40
2019,06,03,07,49,11.50
2019,06,03,07,50,11.60
2019,06,03,07,51,11.60
2019,06,03,07,52,11.60
2019,06,03,07,53,11.70
2019,06,03,07,54,11.70
2019,06,03,07,55,11.70
2019,06,03,07,56,11.70
2019,06,03,07,57,11.70
2019,06,03,07,58,11.80
2019,06,03,07,59,11.80
2019,06,03,08,00,11.80
2019,06,03,08,01,11.90
2019,06,03,08,02,11.90
2019,06,03,08,03,11.90
2019,06,03,08,04,11.90
2019,06,03,08,05,11.90
2019,06,03,08,06,12.00
2019,06,03,08,07,12.00
2019,06,03,08,08,12.10
2019,06,03,08,09,12.10
2019,06,03,08,10,12.20
2019,06,03,08,11,12.20
2019,06,03,08,12,12.30
2019,06,03,08,13,12.30
2019,06,03,08,14,12.40
2019,06,03,08,15,12.40
2019,06,03,08,16,12.50
2019,06,03,08,17,12.50
2019,06,03,08,18,12.60
2019,06,03,08,19,12.60
2019,06,03,08,20,12.60
2019,06,03,08,21,12.70
2019,06,03,08,22,12.70
2019,06,03,08,23,12.70
2019,06,03,08,24,12.80
2019,06,03,08,25,12.80
2019,06,03,08,26,12.80
2019,06,03,08,27,12.90
2019,06,03,08,28,13.00
2019,06,03,08,29,13.00
2019,06,03,08,30,13.10
2019,06,03,08,31,13.10
2019,06,03,08,32,13.10
2019,06,03,08,33,13.10
2019,06,03,08,34,13.20
2019,06,03,08,35,13.10
2019,06,03,08,36,13.10
2019,06,03,08,37,13.10
2019,06,03,08,38,13.10
2019,06,03,08,39,13.10
2019,06,03,08,40,13.10
2019,06,03,08,41,13.10
2019,06,03,08,42,13.00
2019,06,03,08,43,13.00
2019,06,03,08,44,13.00
2019,06,03,08,45,13.10
2019,06,03,08,46,13.10
2019,06,03,08,47,13.10
2019,06,03,08,48,13.20
2019,06,03,08,49,13.30
2019,06,03,08,50,13.30
2019,06,03,08,51,13.30
2019,06,03,08,52,13.30
2019,06,03,08,53,13.40
2019,06,03,08,54,13.40
2019,06,03,08,55,13.40
2019,06,03,08,56,13.40
2019,06,03,08,57,13.40
2019,06,03,08,58,13.50
2019,06,03,08,59,13.50
2019,06,03,09,00,13.50
2019,06,03,09,01,13.50
2019,06,03,09,02,13.50
2019,06,03,09,03,13.50
2019,06,03,09,04,13.50
2019,06,03,09,05,13.50
2019,06,03,09,06,13.60
2019,06,03,09,07,13.60
2019,06,03,09,08,13.70
2019,06,03,09,09,13.70
2019,06,03,09,10,13.80
2019,06,03,09,11,13.90
2019,06,03,09,12,13.90
2019,06,03,09,13,13.90
2019,06,03,09,14,13.80
2019,06,03,09,15,13.80
2019,06,03,09,16,13.80
2019,06,03,09,17,13.70
2019,06,03,09,18,13.70
2019,06,03,09,19,13.70
2019,06,03,09,20,13.70
2019,06,03,09,21,13.70
2019,06,03,09,22,13.80
2019,06,03,09,23,13.80
2019,06,03,09,24,13.90
2019,06,03,09,25,13.90
2019,06,03,09,26,13.90
2019,06,03,09,27,14.00
2019,06,03,09,28,14.00
2019,06,03,09,29,14.00
2019,06,03,09,30,14.00
2019,06,03,09,31,14.10
2019,06,03,09,32,14.10
2019,06,03,09,33,14.10
2019,06,03,09,34,14.10
2019,06,03,09,35,14.10
2019,06,03,09,36,14.10
2019,06,03,09,37,14.10
2019,06,03,09,38,14.10
2019,06,03,09,39,14.10
2019,06,03,09,40,14.20
2019,06,03,09,41,14.20
2019,06,03,09,42,14.30
2019,06,03,09,43,14.30
2019,06,03,09,44,14.30
2019,06,03,09,45,14.30
2019,06,03,09,46,14.20
2019,06,03,09,47,14.10
2019,06,03,09,48,14.10
2019,06,03,09,49,14.00
2019,06,03,09,50,14.00
2019,06,03,09,51,14.10
2019,06,03,09,52,14.10
2019,06,03,09,53,14.20
2019,06,03,09,54,14.20
2019,06,03,09,55,14.20
2019,06,03,09,56,14.20
2019,06,03,09,57,14.10
2019,06,03,09,58,14.00
2019,06,03,09,59,13.90
2019,06,03,10,00,13.80
2019,06,03,10,01,13.70
2019,06,03,10,02,13.70
2019,06,03,10,03,13.70
2019,06,03,10,04,13.70
2019,06,03,10,05,13.70
2019,06,03,10,06,13.60
2019,06,03,10,07,13.60
2019,06,03,10,08,13.60
2019,06,03,10,09,13.60
2019,06,03,10,10,13.60
2019,06,03,10,11,13.60
2019,06,03,10,12,13.70
2019,06,03,10,13,13.70
2019,06,03,10,14,13.80
2019,06,03,10,15,13.90
2019,06,03,10,16,13.90
2019,06,03,10,17,13.90
2019,06,03,10,18,13.90
2019,06,03,10,19,13.80
2019,06,03,10,20,13.80
2019,06,03,10,21,13.80
2019,06,03,10,22,13.80
2019,06,03,10,23,13.80
2019,06,03,10,24,13.80
2019,06,03,10,25,13.80
2019,06,03,10,26,13.80
2019,06,03,10,27,13.90
2019,06,03,10,28,13.90
2019,06,03,10,29,14.00
2019,06,03,10,30,14.10
2019,06,03,10,31,14.20
2019,06,03,10,32,14.30
2019,06,03,10,33,14.30
2019,06,03,10,34,14.30
2019,06,03,10,35,14.30
2019,06,03,10,36,14.20
2019,06,03,10,37,14.10
2019,06,03,10,38,14.10
2019,06,03,10,39,14.10
2019,06,03,10,40,14.20
2019,06,03,10,41,14.20
2019,06,03,10,42,14.20
2019,06,03,10,43,14.20
2019,06,03,10,44,14.20
2019,06,03,10,45,14.20
2019,06,03,10,46,14.20
2019,06,03,10,47,14.20
2019,06,03,10,48,14.20
2019,06,03,10,49,14.30
2019,06,03,10,50,14.40
2019,06,03,10,51,14.30
2019,06,03,10,52,14.30
2019,06,03,10,53,14.30
2019,06,03,10,54,14.30
2019,06,03,10,55,14.30
2019,06,03,10,56,14.30
2019,06,03,10,57,14.30
2019,06,03,10,58,14.30
2019,06,03,10,59,14.40
2019,06,03,11,00,14.50
2019,06,03,11,01,14.60
2019,06,03,11,02,14.60
2019,06,03,11,03,14.70
2019,06,03,11,04,14.80
2019,06,03,11,05,14.80
2019,06,03,11,06,14.80
2019,06,03,11,07,14.80
2019,06,03,11,08,14.70
2019,06,03,11,09,14.60
2019,06,03,11,10,14.60
2019,06,03,11,11,14.60
2019,06,03,11,12,14.60
2019,06,03,11,13,14.60
2019,06,03,11,14,14.60
2019,06,03,11,15,14.70
2019,06,03,11,16,14.80
2019,06,03,11,17,14.80
2019,06,03,11,18,14.90
2019,06,03,11,19,14.90
2019,06,03,11,20,14.80
2019,06,03,11,21,14.80
2019,06,03,11,22,14.70
2019,06,03,11,23,14.70
2019,06,03,11,24,14.80
2019,06,03,11,25,14.80
2019,06,03,11,26,14.70
2019,06,03,11,27,14.70
2019,06,03,11,28,14.70
2019,06,03,11,29,14.60
2019,06,03,11,30,14.60
2019,06,03,11,31,14.50
2019,06,03,11,32,14.50
2019,06,03,11,33,14.40
2019,06,03,11,34,14.40
2019,06,03,11,35,14.30
2019,06,03,11,36,14.40
2019,06,03,11,37,14.40
2019,06,03,11,38,14.40
2019,06,03,11,39,14.40
2019,06,03,11,40,14.40
2019,06,03,11,41,14.50
2019,06,03,11,42,14.60
2019,06,03,11,43,14.60
2019,06,03,11,44,14.60
2019,06,03,11,45,14.60
2019,06,03,11,46,14.60
2019,06,03,11,47,14.70
2019,06,03,11,48,14.80
2019,06,03,11,49,14.80
2019,06,03,11,50,14.80
2019,06,03,11,51,14.80
2019,06,03,11,52,14.70
2019,06,03,11,53,14.70
2019,06,03,11,54,14.60
2019,06,03,11,55,14.60
2019,06,03,11,56,14.50
2019,06,03,11,57,14.50
2019,06,03,11,58,14.60
2019,06,03,11,59,14.60
2019,06,03,12,00,14.60
2019,06,03,12,01,14.60
2019,06,03,12,02,14.60
2019,06,03,12,03,14.60
2019,06,03,12,04,14.60
2019,06,03,12,05,14.60
2019,06,03,12,06,14.70
2019,06,03,12,07,14.80
2019,06,03,12,08,14.90
2019,06,03,12,09,14.90
2019,06,03,12,10,14.90
2019,06,03,12,11,14.90
2019,06,03,12,12,14.90
2019,06,03,12,13,14.80
2019,06,03,12,14,14.80
2019,06,03,12,15,14.80
2019,06,03,12,16,14.70
2019,06,03,12,17,14.70
2019,06,03,12,18,14.70
2019,06,03,12,19,14.70
2019,06,03,12,20,14.70
2019,06,03,12,21,14.70
2019,06,03,12,22,14.70
2019,06,03,12,23,14.70
2019,06,03,12,24,14.80
2019,06,03,12,25,14.80
2019,06,03,12,26,14.80
2019,06,03,12,27,14.90
2019,06,03,12,28,14.90
2019,06,03,12,29,14.80
2019,06,03,12,30,14.80
2019,06,03,12,31,14.80
2019,06,03,12,32,14.90
2019,06,03,12,33,15.00
2019,06,03,12,34,15.10
2019,06,03,12,35,15.00
2019,06,03,12,36,14.90
2019,06,03,12,37,14.90
2019,06,03,12,38,14.80
2019,06,03,12,39,14.70
2019,06,03,12,40,14.70
2019,06,03,12,41,14.70
2019,06,03,12,42,14.60
2019,06,03,12,43,14.50
2019,06,03,12,44,14.50
2019,06,03,12,45,14.40
2019,06,03,12,46,14.40
2019,06,03,12,47,14.30
2019,06,03,12,48,14.40
2019,06,03,12,49,14.40
2019,06,03,12,50,14.50
2019,06,03,12,51,14.60
2019,06,03,12,52,14.60
2019,06,03,12,53,14.60
2019,06,03,12,54,14.60
2019,06,03,12,55,14.70
2019,06,03,12,56,14.70
2019,06,03,12,57,14.70
2019,06,03,12,58,14.80
2019,06,03,12,59,15.00
2019,06,03,13,00,15.10
2019,06,03,13,01,15.10
2019,06,03,13,02,15.10
2019,06,03,13,03,15.10
2019,06,03,13,04,15.10
2019,06,03,13,05,15.10
2019,06,03,13,06,15.10
2019,06,03,13,07,15.10
2019,06,03,13,08,15.10
2019,06,03,13,09,15.20
2019,06,03,13,10,15.10
2019,06,03,13,11,15.10
2019,06,03,13,12,14.90
2019,06,03,13,13,14.90
2019,06,03,13,14,14.90
2019,06,03,13,15,15.00
2019,06,03,13,16,15.00
2019,06,03,13,17,15.00
2019,06,03,13,18,15.00
2019,06,03,13,19,15.00
2019,06,03,13,20,14.80
2019,06,03,13,21,14.80
2019,06,03,13,22,14.80
2019,06,03,13,23,14.90
2019,06,03,13,24,15.00
2019,06,03,13,25,15.10
2019,06,03,13,26,15.10
2019,06,03,13,27,15.00
2019,06,03,13,28,15.00
2019,06,03,13,29,15.00
2019,06,03,13,30,15.10
2019,06,03,13,31,15.20
2019,06,03,13,32,15.20
2019,06,03,13,33,15.00
2019,06,03,13,34,14.90
2019,06,03,13,35,14.80
2019,06,03,13,36,14.80
2019,06,03,13,37,14.70
2019,06,03,13,38,14.70
2019,06,03,13,39,14.70
2019,06,03,13,40,14.60
2019,06,03,13,41,14.60
2019,06,03,13,42,14.60
2019,06,03,13,43,14.60
2019,06,03,13,44,14.60
2019,06,03,13,45,14.60
2019,06,03,13,46,14.50
2019,06,03,13,47,14.50
2019,06,03,13,48,14.40
2019,06,03,13,49,14.40
2019,06,03,13,50,14.40
2019,06,03,13,51,14.50
2019,06,03,13,52,14.40
2019,06,03,13,53,14.40
2019,06,03,13,54,14.40
2019,06,03,13,55,14.50
2019,06,03,13,56,14.60
2019,06,03,13,57,14.60
2019,06,03,13,58,14.60
2019,06,03,13,59,14.60
2019,06,03,14,00,14.70
2019,06,03,14,01,14.80
2019,06,03,14,02,14.80
2019,06,03,14,03,14.80
2019,06,03,14,04,14.80
2019,06,03,14,05,14.80
2019,06,03,14,06,14.80
2019,06,03,14,07,14.80
2019,06,03,14,08,14.80
2019,06,03,14,09,14.90
2019,06,03,14,10,14.90
2019,06,03,14,11,14.90
2019,06,03,14,12,14.90
2019,06,03,14,13,15.00
2019,06,03,14,14,15.00
2019,06,03,14,15,15.00
2019,06,03,14,16,15.00
2019,06,03,14,17,14.90
2019,06,03,14,18,15.00
2019,06,03,14,19,15.00
2019,06,03,14,20,15.00
2019,06,03,14,21,15.10
2019,06,03,14,22,15.10
2019,06,03,14,23,15.00
2019,06,03,14,24,14.90
2019,06,03,14,25,14.90
2019,06,03,14,26,14.90
2019,06,03,14,27,14.80
2019,06,03,14,28,14.80
2019,06,03,14,29,14.80
2019,06,03,14,30,14.90
2019,06,03,14,31,14.90
2019,06,03,14,32,15.00
2019,06,03,14,33,15.10
2019,06,03,14,34,15.10
2019,06,03,14,35,15.20
2019,06,03,14,36,15.20
2019,06,03,14,37,15.30
2019,06,03,14,38,15.30
2019,06,03,14,39,15.20
2019,06,03,14,40,15.20
2019,06,03,14,41,15.20
2019,06,03,14,42,15.20
2019,06,03,14,43,15.20
2019,06,03,14,44,15.20
2019,06,03,14,45,15.20
2019,06,03,14,46,15.20
2019,06,03,14,47,15.10
2019,06,03,14,48,15.00
2019,06,03,14,49,14.90
2019,06,03,14,50,14.80
2019,06,03,14,51,14.80
2019,06,03,14,52,14.80
2019,06,03,14,53,14.80
2019,06,03,14,54,14.90
2019,06,03,14,55,15.00
2019,06,03,14,56,15.00
2019,06,03,14,57,15.10
2019,06,03,14,58,15.20
2019,06,03,14,59,15.30
2019,06,03,15,00,15.40
2019,06,03,15,01,15.50
2019,06,03,15,02,15.60
2019,06,03,15,03,15.60
2019,06,03,15,04,15.60
2019,06,03,15,05,15.50
2019,06,03,15,06,15.40
2019,06,03,15,07,15.20
2019,06,03,15,08,15.10
2019,06,03,15,09,15.10
2019,06,03,15,10,15.10
2019,06,03,15,11,15.20
2019,06,03,15,12,15.20
2019,06,03,15,13,15.10
2019,06,03,15,14,15.10
2019,06,03,15,15,15.10
2019,06,03,15,16,15.10
2019,06,03,15,17,15.20
2019,06,03,15,18,15.30
2019,06,03,15,19,15.30
2019,06,03,15,20,15.20
2019,06,03,15,21,15.20
2019,06,03,15,22,15.20
2019,06,03,15,23,15.20
2019,06,03,15,24,15.20
2019,06,03,15,25,15.30
2019,06,03,15,26,15.30
2019,06,03,15,27,15.30
2019,06,03,15,28,15.40
2019,06,03,15,29,15.40
2019,06,03,15,30,15.40
2019,06,03,15,31,15.30
2019,06,03,15,32,15.30
2019,06,03,15,33,15.20
2019,06,03,15,34,15.30
2019,06,03,15,35,15.20
2019,06,03,15,36,15.20
2019,06,03,15,37,15.20
2019,06,03,15,38,15.20
2019,06,03,15,39,15.20
2019,06,03,15,40,15.10
2019,06,03,15,41,15.00
2019,06,03,15,42,14.90
2019,06,03,15,43,14.90
2019,06,03,15,44,14.90
2019,06,03,15,45,14.80
2019,06,03,15,46,14.90
2019,06,03,15,47,15.00
2019,06,03,15,48,15.10
2019,06,03,15,49,15.10
2019,06,03,15,50,15.00
2019,06,03,15,51,15.00
2019,06,03,15,52,15.00
2019,06,03,15,53,15.10
2019,06,03,15,54,15.20
2019,06,03,15,55,15.30
2019,06,03,15,56,15.30
2019,06,03,15,57,15.30
2019,06,03,15,58,15.30
2019,06,03,15,59,15.30
2019,06,03,16,00,15.40
2019,06,03,16,01,15.40
2019,06,03,16,02,15.40
2019,06,03,16,03,15.40
2019,06,03,16,04,15.30
2019,06,03,16,05,15.20
2019,06,03,16,06,15.10
2019,06,03,16,07,15.10
2019,06,03,16,08,15.10
2019,06,03,16,09,15.10
2019,06,03,16,10,15.10
2019,06,03,16,11,15.20
2019,06,03,16,12,15.20
2019,06,03,16,13,15.20
2019,06,03,16,14,15.30
2019,06,03,16,15,15.30
2019,06,03,16,16,15.20
2019,06,03,16,17,15.20
2019,06,03,16,18,15.20
2019,06,03,16,19,15.10
2019,06,03,16,20,15.10
2019,06,03,16,21,15.10
2019,06,03,16,22,15.20
2019,06,03,16,23,15.30
2019,06,03,16,24,15.30
2019,06,03,16,25,15.20
2019,06,03,16,26,15.20
2019,06,03,16,27,15.10
2019,06,03,16,28,15.10
2019,06,03,16,29,15.20
2019,06,03,16,30,15.20
2019,06,03,16,31,15.20
2019,06,03,16,32,15.10
2019,06,03,16,33,15.10
2019,06,03,16,34,15.20
2019,06,03,16,35,15.20
2019,06,03,16,36,15.30
2019,06,03,16,37,15.30
2019,06,03,16,38,15.40
2019,06,03,16,39,15.40
2019,06,03,16,40,15.30
2019,06,03,16,41,15.20
2019,06,03,16,42,15.10
2019,06,03,16,43,15.10
2019,06,03,16,44,15.10
2019,06,03,16,45,15.20
2019,06,03,16,46,15.20
2019,06,03,16,47,15.20
2019,06,03,16,48,15.20
2019,06,03,16,49,15.20
2019,06,03,16,50,15.20
2019,06,03,16,51,15.30
2019,06,03,16,52,15.20
2019,06,03,16,53,15.30
2019,06,03,16,54,15.30
2019,06,03,16,55,15.40
2019,06,03,16,56,15.40
2019,06,03,16,57,15.30
2019,06,03,16,58,15.30
2019,06,03,16,59,15.20
2019,06,03,17,00,15.10
2019,06,03,17,01,15.10
2019,06,03,17,02,15.20
2019,06,03,17,03,15.20
2019,06,03,17,04,15.20
2019,06,03,17,05,15.20
2019,06,03,17,06,15.20
2019,06,03,17,07,15.10
2019,06,03,17,08,15.00
2019,06,03,17,09,15.00
2019,06,03,17,10,15.00
2019,06,03,17,11,15.00
2019,06,03,17,12,14.90
2019,06,03,17,13,14.90
2019,06,03,17,14,14.80
2019,06,03,17,15,14.70
2019,06,03,17,16,14.60
2019,06,03,17,17,14.60
2019,06,03,17,18,14.60
2019,06,03,17,19,14.60
2019,06,03,17,20,14.60
2019,06,03,17,21,14.70
2019,06,03,17,22,14.70
2019,06,03,17,23,14.70
2019,06,03,17,24,14.80
2019,06,03,17,25,14.80
2019,06,03,17,26,14.80
2019,06,03,17,27,14.80
2019,06,03,17,28,14.80
2019,06,03,17,29,14.80
2019,06,03,17,30,14.80
2019,06,03,17,31,14.80